Regional Weather Roundup
Issued by NWS

Home | Current Version | Previous Version | Graphics & Text | Print | Product List | Glossary On
Versions: 1 2 3 4 5 6 7 8 9 10 11 12 13 14 15 16 17 18 19 20 21 22 23 24 25 26 27 28 29 30 31 32 33 34 35 36 37 38 39 40 41 42 43 44 45 46 47 48 49 50
000
ASUS43 KMKX 261511
RWRWI

WISCONSIN REGIONAL WEATHER ROUNDUP
NATIONAL WEATHER SERVICE MILWAUKEE/SULLIVAN WI
1000 AM CDT SUN MAR 26 2017

NOTE: "FAIR" INDICATES FEW OR NO CLOUDS BELOW 12,000 FEET WITH NO
SIGNIFICANT WEATHER AND/OR OBSTRUCTIONS TO VISIBILITY.

WIZ001-002-006>008-014>016-023>028-261600-
NORTHWEST WISCONSIN

CITY           SKY/WX    TMP DP  RH WIND       PRES   REMARKS
SUPERIOR ARPT  DRIZZLE   34  34 100 NE8       30.00F WCI  27
ASHLAND        CLOUDY    34  33  96 N7        29.99F FOG     WCI  28
HAYWARD        CLOUDY    37  33  85 NE6       29.96S WCI  32
SIREN          RAIN      35  34  97 NE6       29.96F WCI  30
CUMBERLAND     CLOUDY    34  32  93 NE6       29.94F FOG     WCI  29
RICE LAKE      CLOUDY    36  35  97 CALM      29.96F
CHETEK         CLOUDY    35  34  97 CALM      29.94F
LADYSMITH      CLOUDY    37  35  94 NE6       29.95F FOG     WCI  32
EAU CLAIRE     CLOUDY    36  35  96 NE5       29.92F FOG     WCI  32
MENOMONIE      CLOUDY    37  35  91 N5        29.93S WCI  34
NEW RICHMOND   CLOUDY    36  36 100 NE7       29.95S FOG     WCI  30
OSCEOLA        CLOUDY    37  37 100 NE3       29.98F
$$

WIZ003>005-009-010-017-018-261600-
NORTH CENTRAL WISCONSIN

CITY           SKY/WX    TMP DP  RH WIND       PRES   REMARKS
MANITOWISH WTR DRIZZLE   33  33 100 E3        29.94S
ARBOR VITAE    CLOUDY    37  35  95 E3        29.93S FOG
WOODRUFF       CLOUDY    37  35  95 E3        29.93S FOG
RHINELANDER    LGT RAIN  34  33  96 NE5       29.93F FOG     WCI  30
EAGLE RIVER    MIX PCPN  32  32 100 E3        29.94S
LAND O LAKES   MIX PCPN  33  33  99 E3        29.95F
PHILLIPS       CLOUDY    34  34 100 NE3       29.93S
TOMAHAWK       CLOUDY    34  33  96 CALM      29.93F
MEDFORD        DRIZZLE   33  32  96 E8        29.91S WCI  27
MERRILL        LGT RAIN  34  34 100 E5        29.94S WCI  30
$$

WIZ029-030-035-036-043>047-261600-
CENTRAL WISCONSIN

CITY           SKY/WX    TMP DP  RH WIND       PRES   REMARKS
WAUSAU         LGT RAIN  34  33  96 E6        29.92S FOG     WCI  29
MOSINEE        LGT RAIN  34  34 100 NE9       29.93S FOG     WCI  26
MARSHFIELD     LGT RAIN  34  33  96 NE8       29.90S FOG     WCI  27
STEVENS POINT  LGT RAIN  32  32 100 NE7       29.92F WCI  26
WAUPACA        CLOUDY    37  36  96 NE5       29.93S FOG     WCI  33
WAUTOMA        CLOUDY    36  35  96 NE10      29.91F FOG     WCI  28
WISC RAPIDS    CLOUDY    35  35 100 E9        29.92F WCI  28
CAMP DOUGLAS   CLOUDY    37  36  93 E6        29.89F FOG     WCI  33
$$

WIZ011>013-019>022-031-037>040-048>050-261600-
NORTHEAST WISCONSIN

CITY           SKY/WX    TMP DP  RH WIND       PRES   REMARKS
ANTIGO         MIX PCPN  32  32 100 E7        29.93S WCI  26
SHAWANO        CLOUDY    36  34  93 NE6       29.96S WCI  31
OCONTO         CLOUDY    34  34  98 NE7       29.97S WCI  28
STURGEON BAY   LGT RAIN  36  36 100 NE7       29.97S FOG     WCI  30
GREEN BAY      CLOUDY    36  36 100 NE10      29.94F FOG     WCI  28
MANITOWOC      LGT RAIN  39  38  96 NE6       29.94F WCI  35
APPLETON       FOG       36  36 100 NE10      29.91F VSB 1   WCI  28
CLINTONVILLE   LGT RAIN  34  34 100 NE7       29.94S WCI  28
OSHKOSH        FOG       37  36  96 NE9       29.91S VSB 3/4 WCI  30
$$

WIZ032>034-041-042-053>061-261600-
SOUTHWEST WISCONSIN

CITY           SKY/WX    TMP DP  RH WIND       PRES   REMARKS
LA CROSSE      CLOUDY    40  38  93 NE6       29.90S FOG
SPARTA         CLOUDY    36  36 100 E7        29.90F FOG     WCI  30
VIROQUA        CLOUDY    37  37 100 NE8       29.86F VSB<1/4 WCI  31
BOSCOBEL       HVY RAIN  41  39  93 NE6       29.88S VSB 1
PRAIRIE DU CHI DRIZZLE   40  39  97 CALM      29.87S
PLATTEVILLE    CLOUDY    43  43 100 NE8       29.85R
$$

WIZ056-057-062-063-064-067-068-261600-
SOUTH CENTRAL WISCONSIN

CITY           SKY/WX    TMP DP  RH WIND       PRES   REMARKS
REEDSBURG      HVY RAIN  37  37 100 NE7       29.88S WCI  32
BARABOO/DELLS  RAIN      37  37  99 NE6       29.88S WCI  32
LONE ROCK      LGT RAIN  42  40  92 NE5       29.88S VSB 3/4
MINERAL POINT  DRIZZLE   43  43 100 NE7       29.84S
MADISON        LGT RAIN  41  41 100 NE8       29.86F FOG
MIDDLETON      CLOUDY    42  42 100 NE6       29.87S VSB 1/2
WATERTOWN      RAIN      41  41 100 E6        29.86F
MONROE         LGT RAIN  43  43 100 NE7       29.84S VSB<1/4
JANESVILLE     LGT RAIN  45  45 100 NE6       29.85S VSB 1
$$

WIZ051-052-058>065-066-070>072-261600-
SOUTHEAST WISCONSIN

CITY           SKY/WX    TMP DP  RH WIND       PRES   REMARKS
MILWAUKEE      HVY RAIN  40  39  97 NE8       29.88F VSB 1/4 WCI  34
WAUKESHA       LGT RAIN  37  37 100 E7        29.88F FOG     WCI  32
MILWAUKEE/TIMM LGT RAIN  39  37  93 NE6       29.89F FOG     WCI  35
RACINE         HVY RAIN  41  39  93 NE8       29.88F FOG
KENOSHA        LGT RAIN  44  43  96 E7        29.86S FOG
FOND DU LAC    LGT RAIN  40  37  89 NE7       29.90F FOG
SHEBOYGAN      LGT RAIN  39  37  92 NE9       29.91F FOG     WCI  33
WEST BEND      LGT RAIN  37  37 100 E10       29.88F WCI  30
JUNEAU         HVY RAIN  40  39  99 NE5       29.88F
$$

LSZ147-162-261600-
LAKE SUPERIOR

STATION/POSITION TIME  TEMP    WIND        PRES    WAVE
                       AIR SEA DIR/SP/G            HT/PER
                 (UTC) (F)     (DEG/KT/KT) (MB)    (FT/S)
DEVILS ISLAND    1400   33      50/  6/  6 1017.1F
PORT WING        1430   34      40/  8/ 10 1016.3S
SAXON HARBOR     1440   34      CALM  /  1 1015.2S
$$

LMZ867-665-643>646-261600-
LAKE MICHIGAN

STATION/POSITION TIME  TEMP    WIND        PRES    WAVE
                       AIR SEA DIR/SP/G            HT/PER
                 (UTC) (F)     (DEG/KT/KT) (MB)    (FT/S)
CHAMBERS ISLAND  1440   34      60/  7/ 10 1014.9F
NORTHPORT PIER   1440   34      70/ 10/ 13 1015.2F
SISTER BAY       1436   35     110/  9/ 14   N/A
KEWAUNEE LAKESHO 1448   36      50/  5/  8 1013.8F
SHEBOYGAN LAKESH 1500   37      30/ 10/ 10 1013.3F
PORT WASHINGTON  1440   39      40/ 11/ 13 1013.5F
MILWAUKEE LAKESH 1450   38      20/ 11/ 12   N/A
KENOSHA   LAKESH 1500   40      40/ 11/ 12 1011.5
$$

TC  - TEMPERATURE IN CELSIUS
VSB - VISIBILITY IN STATUTE MILES
WCI - WIND CHILL INDEX
HX  - HEAT INDEX





USA.gov is the U.S. government's official web portal to all federal, state and local government web resources and services.